Temp
6 6 6 7 7 7 7 7 7 8 8 8 9 9 8 8 7 7 7 8 8 8 8 8 8 8 8 8 8 9 9 9 9 9 9 10 9 10 11 11 11 11 11
5 6 6 6 6 6 6 7 7 7 7 6 6 6 6 6 6 7 7 6 7 7 7 7 7 7 7 8 8 8 8 8 8 9 9 8 10 10 10 10 10 10 11
5 5 6 6 5 5 5 5 5 5 5 5 5 6 6 6 6 6 6 6 6 6 7 6 6 6 6 7 8 8 8 8 8 8 8 8 8 10 9 9 10 10 10
5 5 5 5 5 5 5 4 4 4 4 4 4 4 4 4 5 5 5 5 6 6 6 6 6 5 6 6 7 7 7 7 7 8 8 8 8 8 8 8 9 9 10
5 5 4 4 4 4 4 4 3 3 3 3 4 4 4 4 4 4 5 5 5 5 5 5 5 5 5 6 6 6 7 7 7 7 7 8 7 7 8 9 8 8 9
4 4 3 3 3 3 3 3 3 3 3 3 3 3 3 3 3 4 4 4 5 5 5 5 5 5 4 5 6 6 6 6 7 6 7 7 7 8 7 8 9 9 8
4 3 4 3 3 3 3 3 3 3 2 2 2 2 2 2 2 2 2 3 3 4 4 4 5 5 5 5 5 6 6 6 6 6 7 8 8 7 7 7 7 7 8
3 3 2 2 1 2 3 3 2 2 2 2 2 2 2 1 1 1 1 2 2 3 3 4 4 4 5 4 5 5 5 6 6 6 6 6 7 7 7 7 7 7 7
1 1 2 2 2 2 2 1 1 1 1 1 1 2 2 2 1 1 1 1 1 2 2 3 3 3 3 3 4 4 5 5 6 6 6 6 6 7 7 7 7 7 6
2 2 2 2 1 0 0 0 0 1 1 1 1 1 1 1 0 0 1 1 1 1 1 2 2 2 1 2 2 3 4 5 6 6 6 6 6 7 7 7 7 6 6
1 1 1 0 -0 0 0 1 1 0 0 -0 -0 -0 -0 -1 -1 -1 -0 -0 0 0 0 1 2 3 2 1 2 3 3 4 5 6 6 6 6 7 7 7 7 6 6
0 0 -0 -0 -0 -0 -1 -1 -1 -1 -1 -2 -2 -2 -2 -2 -2 -2 -1 -1 -1 -1 -1 -0 1 2 2 2 2 3 3 4 4 5 5 5 6 7 7 6 7 7 6
-0 -1 -1 -1 -1 -2 -2 -2 -3 -3 -3 -4 -4 -4 -4 -4 -4 -3 -3 -3 -3 -2 -1 -1 -0 1 2 2 2 3 3 4 4 5 5 5 6 6 7 6 6 6 6
-2 -2 -2 -3 -3 -4 -4 -4 -4 -5 -5 -5 -6 -5 -5 -5 -5 -5 -5 -4 -4 -3 -2 -1 -1 -1 1 1 3 3 3 4 4 5 5 5 5 5 6 6 5 6 5
-3 -3 -4 -4 -4 -4 -5 -5 -5 -6 -6 -6 -6 -6 -6 -5 -5 -5 -5 -5 -4 -4 -3 -2 -2 -2 -0 1 2 2 3 3 4 5 5 5 6 5 5 6 5 6 5
-4 -4 -5 -5 -6 -6 -6 -6 -7 -7 -7 -7 -6 -6 -6 -6 -6 -6 -6 -5 -5 -4 -4 -3 -4 -3 -1 0 0 1 2 3 3 4 5 5 5 5 5 5 5 5 5
-5 -5 -6 -6 -7 -7 -7 -7 -8 -7 -7 -7 -7 -7 -7 -7 -7 -7 -7 -6 -6 -5 -4 -5 -4 -3 -3 -2 -0 1 2 2 3 4 4 5 5 5 5 5 4 4 4
-6 -6 -6 -7 -7 -7 -7 -7 -8 -7 -7 -7 -8 -8 -8 -8 -8 -8 -7 -7 -6 -5 -5 -5 -4 -3 -3 -1 -0 0 1 3 3 4 4 4 4 4 4 4 4 4 4
-7 -7 -7 -7 -8 -8 -8 -8 -8 -8 -8 -8 -8 -8 -8 -8 -8 -8 -7 -7 -6 -5 -5 -5 -4 -3 -2 -1 -1 -0 1 3 4 3 3 3 4 3 4 4 4 4 3
-7 -7 -7 -7 -7 -7 -8 -9 -8 -8 -8 -9 -8 -8 -8 -8 -8 -8 -7 -7 -6 -5 -5 -5 -4 -3 -2 -1 -0 0 2 2 4 3 3 3 4 4 4 3 4 3 3
-7 -8 -7 -7 -8 -9 -9 -8 -8 -8 -9 -9 -8 -8 -7 -8 -8 -8 -7 -6 -5 -4 -5 -4 -3 -3 -2 -2 -1 0 1 2 3 3 3 3 3 3 3 3 3 3 3
-7 -8 -7 -7 -8 -8 -10 -10 -9 -9 -9 -9 -8 -7 -8 -8 -8 -7 -6 -5 -5 -4 -4 -4 -3 -3 -2 -2 -1 -0 0 1 2 2 3 3 3 2 2 2 2 2 2
-8 -9 -8 -9 -8 -8 -9 -10 -10 -10 -9 -8 -8 -8 -8 -7 -7 -7 -6 -5 -5 -5 -4 -4 -3 -3 -3 -2 -2 -1 -0 0 1 2 1 1 1 1 0 1 1 0 0
-9 -9 -9 -9 -8 -9 -9 -10 -10 -10 -9 -9 -8 -7 -7 -7 -7 -6 -5 -5 -5 -5 -4 -4 -4 -3 -3 -3 -3 -3 -2 -1 -1 -1 -1 -0 -0 -0 -0 -1 -1 -1 -1
-9 -9 -9 -9 -9 -9 -9 -10 -10 -10 -9 -8 -8 -7 -7 -6 -6 -6 -5 -5 -4 -4 -4 -4 -4 -4 -3 -3 -3 -3 -3 -2 -1 -1 -1 -1 -1 -1 -1 -2 -2 -2 -2
-10 -9 -9 -9 -9 -9 -9 -10 -10 -10 -10 -9 -8 -7 -7 -6 -6 -5 -5 -4 -4 -4 -4 -4 -4 -4 -4 -4 -4 -4 -3 -3 -2 -2 -2 -2 -2 -2 -2 -2 -3 -3 -3
Height
1533 1534 1536 1537 1537 1534 1532 1530 1528 1526 1524 1520 1517 1515 1513 1513 1512 1510 1507 1504 1502 1501 1500 1499 1498 1498 1498 1498 1498 1500 1501 1501 1503 1502 1505 1507 1508 1509 1512 1514 1518 1520 1523
1536 1535 1536 1537 1536 1535 1532 1529 1527 1525 1522 1520 1517 1514 1512 1510 1508 1507 1505 1503 1500 1498 1496 1495 1494 1494 1494 1494 1494 1496 1496 1497 1498 1500 1501 1500 1501 1501 1504 1508 1510 1513 1517
1539 1538 1536 1537 1537 1535 1532 1529 1527 1526 1523 1520 1517 1514 1511 1509 1506 1503 1501 1498 1497 1494 1492 1491 1489 1489 1489 1489 1490 1491 1492 1493 1494 1496 1497 1499 1498 1498 1498 1501 1501 1507 1510
1540 1540 1539 1538 1536 1533 1532 1530 1528 1526 1523 1519 1516 1513 1510 1506 1503 1501 1498 1495 1494 1491 1488 1486 1485 1484 1485 1485 1486 1487 1487 1489 1490 1491 1493 1494 1496 1497 1495 1494 1498 1499 1503
1540 1542 1541 1538 1537 1536 1534 1531 1528 1525 1522 1519 1515 1512 1509 1506 1503 1499 1496 1493 1490 1487 1485 1482 1481 1479 1480 1481 1481 1482 1483 1484 1485 1486 1487 1488 1492 1492 1493 1492 1493 1496 1493
1540 1539 1541 1540 1539 1536 1533 1530 1527 1523 1520 1517 1514 1511 1507 1504 1499 1495 1491 1488 1486 1483 1479 1478 1475 1474 1474 1475 1475 1476 1478 1478 1479 1481 1482 1484 1485 1486 1487 1488 1489 1491 1493
1542 1539 1540 1540 1537 1534 1531 1528 1525 1521 1519 1516 1513 1510 1506 1502 1498 1493 1490 1485 1481 1477 1475 1472 1469 1468 1467 1468 1468 1470 1472 1473 1473 1474 1475 1477 1479 1480 1482 1483 1485 1485 1489
1541 1542 1540 1536 1534 1533 1529 1525 1522 1518 1515 1511 1508 1505 1501 1497 1493 1489 1485 1480 1475 1472 1468 1465 1463 1461 1460 1460 1461 1463 1464 1466 1467 1468 1469 1471 1473 1476 1478 1479 1481 1482 1486
1538 1540 1537 1534 1533 1529 1526 1522 1518 1514 1511 1507 1503 1498 1494 1489 1485 1482 1478 1473 1470 1466 1463 1460 1458 1456 1455 1454 1455 1455 1456 1458 1459 1460 1462 1464 1466 1469 1471 1473 1475 1478 1482
1540 1537 1536 1532 1529 1527 1523 1519 1515 1510 1505 1501 1496 1491 1486 1483 1479 1474 1470 1467 1464 1461 1459 1456 1453 1450 1449 1448 1448 1447 1448 1450 1451 1453 1454 1457 1459 1462 1464 1466 1468 1472 1473
1537 1534 1533 1531 1527 1523 1519 1514 1510 1504 1498 1493 1488 1483 1478 1475 1471 1466 1463 1460 1457 1455 1452 1449 1446 1442 1441 1441 1440 1440 1441 1441 1443 1445 1447 1449 1452 1455 1458 1460 1463 1466 1469
1535 1532 1529 1526 1523 1517 1512 1507 1503 1497 1492 1486 1481 1476 1471 1467 1463 1458 1455 1452 1449 1447 1445 1441 1437 1435 1434 1433 1432 1433 1433 1433 1434 1437 1440 1441 1444 1447 1450 1453 1456 1459 1464
1532 1529 1525 1522 1517 1512 1507 1501 1496 1490 1485 1480 1475 1469 1465 1460 1455 1451 1448 1445 1442 1439 1437 1434 1431 1428 1427 1426 1426 1425 1425 1425 1426 1429 1431 1433 1436 1438 1442 1445 1449 1453 1458
1530 1527 1521 1516 1512 1507 1501 1495 1490 1484 1478 1473 1468 1463 1459 1454 1449 1445 1441 1438 1434 1431 1429 1426 1424 1421 1418 1417 1417 1417 1417 1416 1417 1420 1422 1424 1427 1431 1435 1438 1443 1447 1451
1527 1523 1517 1511 1507 1501 1495 1489 1483 1478 1473 1467 1462 1457 1452 1448 1443 1438 1434 1430 1427 1424 1421 1418 1416 1413 1410 1409 1408 1408 1409 1409 1409 1409 1415 1417 1421 1425 1428 1432 1436 1441 1445
1523 1519 1514 1508 1502 1496 1490 1483 1477 1472 1467 1461 1456 1451 1446 1441 1436 1431 1427 1423 1420 1417 1414 1411 1408 1404 1402 1400 1399 1400 1399 1399 1401 1403 1407 1411 1413 1418 1423 1427 1431 1435 1440
1522 1516 1510 1504 1498 1491 1485 1478 1472 1467 1461 1455 1451 1446 1440 1435 1430 1425 1420 1416 1413 1409 1406 1403 1400 1396 1393 1391 1391 1391 1391 1392 1393 1394 1397 1401 1408 1413 1417 1421 1426 1431 1436
1519 1513 1507 1500 1494 1487 1480 1473 1467 1462 1456 1450 1445 1440 1434 1429 1424 1418 1414 1409 1406 1403 1399 1395 1393 1389 1385 1384 1383 1382 1384 1385 1387 1389 1392 1396 1402 1405 1409 1416 1422 1425 1429
1516 1509 1504 1496 1489 1482 1475 1467 1461 1457 1451 1445 1440 1435 1430 1423 1417 1412 1407 1403 1400 1396 1393 1390 1386 1382 1378 1377 1376 1376 1378 1380 1380 1384 1387 1391 1395 1401 1406 1412 1417 1422 1427
1512 1505 1499 1492 1485 1478 1470 1462 1456 1452 1447 1440 1434 1429 1425 1419 1412 1407 1402 1398 1395 1391 1388 1383 1380 1376 1372 1371 1370 1371 1373 1375 1378 1382 1386 1390 1393 1399 1404 1409 1414 1418 1423
1505 1500 1494 1487 1480 1473 1466 1459 1452 1448 1442 1436 1430 1424 1419 1414 1409 1402 1398 1394 1391 1386 1382 1378 1375 1372 1370 1368 1366 1367 1369 1373 1376 1379 1382 1387 1391 1396 1403 1408 1412 1417 1421
1500 1495 1488 1482 1476 1469 1462 1455 1449 1443 1437 1431 1425 1419 1414 1409 1404 1399 1394 1390 1386 1382 1377 1374 1371 1369 1368 1366 1365 1365 1367 1370 1374 1377 1381 1385 1390 1395 1400 1406 1411 1416 1420
1496 1490 1483 1478 1473 1466 1458 1450 1444 1438 1432 1426 1420 1413 1409 1404 1400 1395 1390 1386 1382 1378 1374 1371 1368 1367 1365 1364 1364 1364 1365 1367 1372 1375 1380 1384 1389 1395 1400 1405 1411 1416 1421
1491 1485 1479 1474 1467 1461 1454 1448 1440 1433 1427 1421 1415 1409 1404 1399 1396 1392 1387 1383 1378 1374 1371 1368 1366 1365 1364 1363 1363 1364 1365 1367 1371 1375 1379 1384 1389 1395 1399 1405 1412 1417 1422
1486 1481 1476 1470 1463 1457 1450 1443 1436 1429 1423 1417 1412 1406 1401 1396 1392 1388 1385 1380 1375 1371 1368 1366 1365 1363 1363 1362 1363 1364 1366 1367 1370 1374 1380 1384 1390 1395 1401 1407 1413 1418 1423
1483 1478 1473 1467 1460 1453 1446 1439 1433 1426 1420 1414 1408 1403 1398 1393 1390 1385 1380 1378 1373 1369 1366 1365 1364 1363 1363 1363 1365 1367 1369 1371 1373 1377 1381 1386 1392 1398 1403 1409 1414 1421 1427
Wind_Speed
15 12 8 3 2 4 7 10 13 15 17 19 20 20 21 21 19 18 18 18 18 17 15 16 16 15 16 18 20 21 23 23 24 24 25 26 28 30 31 32 36 34 31
13 10 6 2 6 9 12 14 16 17 19 20 20 22 22 21 21 21 20 18 18 17 17 16 17 17 19 18 19 20 22 22 27 24 20 17 25 26 30 35 35 38 35
10 6 5 8 9 12 15 15 16 16 17 18 20 21 22 23 24 23 23 23 22 19 18 17 17 17 18 21 20 19 21 20 21 26 17 8 11 21 27 30 34 39 37
7 7 7 8 12 14 13 13 15 17 19 21 22 24 25 27 27 27 26 25 22 19 18 17 17 17 18 19 21 20 21 20 21 19 23 21 24 10 6 24 32 36 43
6 10 14 15 15 13 13 13 14 16 19 21 23 25 26 27 27 27 27 27 26 23 18 17 18 18 19 20 21 21 22 24 23 23 21 22 25 23 22 9 16 24 30
6 11 13 10 10 12 13 14 16 19 21 23 25 27 29 30 31 31 30 29 27 26 25 22 17 19 21 22 21 21 24 22 24 24 24 24 23 30 25 20 21 19 25
7 9 8 11 13 17 17 17 19 21 23 24 26 28 28 30 31 30 30 30 29 28 26 26 24 18 21 25 23 27 29 25 24 23 25 23 26 26 29 24 22 15 22
9 10 13 15 15 19 20 19 22 24 27 29 31 32 32 33 32 30 30 29 29 29 28 27 27 25 20 23 27 28 28 29 28 27 25 27 27 27 28 26 22 18 23
10 11 10 13 15 14 16 20 25 28 31 33 35 37 39 39 36 33 31 30 29 29 29 28 27 26 23 21 22 29 29 29 29 28 30 29 27 26 24 27 24 24 19
5 9 14 14 16 18 22 25 28 32 35 37 39 40 41 39 35 33 31 30 30 28 28 28 27 24 24 21 23 26 31 31 34 32 30 31 30 27 26 24 24 25 26
11 12 17 19 20 24 28 31 34 36 38 39 39 40 39 37 34 32 30 30 30 29 28 28 29 27 24 23 23 26 25 30 33 33 32 31 31 29 27 26 24 24 21
14 17 20 26 31 33 34 35 36 36 36 37 37 36 36 34 33 32 30 29 30 28 28 28 29 27 25 23 24 27 24 27 31 32 34 32 31 30 29 26 24 22 23
16 20 27 32 33 34 35 36 37 37 36 35 35 34 33 33 32 30 29 28 28 28 28 28 29 28 26 25 26 28 25 29 31 31 33 31 32 33 31 30 27 23 23
19 28 33 34 35 36 37 37 38 37 36 35 34 34 34 33 32 30 29 29 28 29 29 28 29 29 28 26 27 29 26 27 34 34 34 32 32 30 27 29 28 27 23
26 34 35 36 37 38 38 38 37 36 35 35 35 35 34 33 32 31 31 30 29 28 28 29 27 30 29 27 25 27 30 28 29 30 30 27 33 31 29 30 26 24 27
33 36 37 37 38 39 40 39 38 37 35 35 35 34 34 34 33 32 31 30 29 28 27 27 26 31 29 26 24 26 27 32 36 32 30 35 25 23 23 24 24 26 29
35 35 37 38 39 39 38 38 37 36 35 34 34 33 33 33 33 32 31 29 28 28 26 26 26 30 28 25 24 25 25 28 27 23 26 28 25 28 23 25 23 24 22
33 35 37 38 39 39 37 36 36 35 35 34 34 33 34 35 34 33 31 28 27 26 25 25 29 29 27 24 23 24 26 22 26 28 23 24 30 27 27 28 24 19 21
33 34 36 37 39 38 36 36 36 35 34 33 33 33 34 35 34 32 30 27 26 25 23 27 29 26 26 21 20 17 21 22 19 22 19 26 20 22 25 23 24 23 19
33 35 36 37 37 38 37 36 35 34 35 34 33 33 33 32 32 30 27 25 24 24 25 27 24 23 22 18 16 16 19 16 19 19 20 23 23 20 20 20 23 20 21
33 33 34 37 37 38 35 35 33 33 34 34 34 33 31 29 29 28 26 25 23 24 26 24 20 16 12 10 10 8 14 16 21 19 19 21 22 24 20 20 19 18 17
33 33 35 38 39 37 35 36 34 33 32 33 33 32 30 27 27 26 24 22 22 25 24 20 17 13 12 11 9 9 10 15 20 24 24 24 22 20 19 21 20 16 19
33 32 34 39 38 36 34 36 34 32 32 33 33 31 29 26 24 25 25 24 23 22 22 17 15 13 10 10 9 7 9 13 18 23 22 24 21 20 22 20 20 21 23
32 33 35 38 39 37 36 33 32 31 31 33 32 30 28 26 24 23 22 23 22 22 18 15 13 11 9 7 5 8 9 13 20 25 27 25 24 25 26 26 25 23 20
31 32 34 37 38 38 36 32 31 29 30 32 30 29 27 24 25 22 23 23 21 18 16 12 9 8 7 5 7 12 14 20 26 30 29 29 29 29 29 27 26 24 23
30 31 33 35 36 36 36 33 30 28 29 31 30 28 27 24 24 23 25 21 19 15 11 8 6 5 3 3 7 10 17 25 27 29 30 31 30 29 29 29 28 25 22
Wind_Direction
138 149 145 126 4 346 342 342 340 340 338 338 337 338 342 343 341 341 338 330 322 310 297 287 271 261 263 262 255 259 254 257 260 250 239 240 249 247 246 242 233 231 231
130 125 119 49 0 355 351 346 346 344 344 344 347 346 341 339 336 335 336 336 329 318 302 287 279 264 260 258 259 257 258 256 262 243 255 268 258 259 249 246 239 233 229
117 103 60 17 360 356 359 358 357 354 351 348 343 339 335 337 337 338 337 339 333 324 313 291 278 271 260 256 260 260 261 261 256 255 245 228 241 260 250 244 244 241 228
86 55 33 7 1 359 357 1 2 1 360 355 352 351 347 341 339 335 334 333 336 329 312 301 277 268 257 257 256 258 262 262 256 255 250 252 244 264 272 226 232 248 231
64 41 20 9 357 353 354 356 356 351 351 351 349 346 340 335 330 329 327 328 330 333 331 301 285 265 259 253 256 257 257 256 260 260 255 260 257 242 238 257 228 222 212
53 29 358 353 350 348 346 343 343 343 341 342 343 342 338 331 327 325 322 322 322 324 327 330 302 276 258 256 251 258 255 258 252 256 262 256 259 253 253 248 252 243 241
24 16 355 349 345 337 331 328 328 329 328 328 330 331 333 329 324 320 317 316 316 317 320 322 323 301 271 255 255 250 257 260 259 255 257 259 259 253 253 246 243 250 240
23 352 336 321 322 314 308 312 315 317 319 321 321 323 324 325 321 316 311 311 313 312 313 314 318 317 293 263 251 253 256 258 258 256 257 255 247 252 261 252 252 243 253
333 335 346 338 314 308 309 311 313 314 315 315 316 315 316 318 317 312 309 308 308 308 306 306 309 311 307 277 262 253 255 259 259 261 257 258 254 245 250 247 242 251 237
323 332 331 326 314 312 310 308 310 314 313 313 313 313 313 312 311 307 305 303 303 301 301 298 301 304 307 285 272 266 253 250 253 257 257 256 255 252 245 245 250 241 241
341 337 330 325 320 316 313 312 313 313 314 314 313 312 311 310 309 306 304 300 298 297 297 298 297 298 304 299 267 272 272 258 247 249 253 256 250 247 242 236 237 231 231
335 330 327 327 326 325 323 322 320 318 317 316 314 313 312 312 310 308 304 299 297 293 295 298 298 297 299 292 272 266 266 264 250 248 248 251 247 244 237 230 227 226 232
325 328 330 330 328 327 326 325 325 324 322 320 319 317 317 316 315 312 307 302 299 296 294 296 297 294 292 288 273 264 271 261 253 254 246 247 246 240 236 227 223 225 229
328 332 332 333 332 331 330 329 326 325 325 323 322 320 320 318 315 312 309 304 301 298 296 294 293 292 292 290 274 265 271 265 248 249 242 242 241 239 232 222 225 223 220
333 337 335 334 333 332 331 329 326 325 326 323 322 321 320 318 314 311 307 305 302 299 297 297 292 292 294 288 277 266 257 258 260 247 238 243 238 238 226 229 220 222 222
336 334 332 333 332 332 331 329 326 326 325 324 324 324 322 318 315 312 310 306 304 301 297 296 292 297 295 290 277 266 262 247 263 242 247 230 226 229 220 219 221 233 214
332 330 332 332 331 331 331 327 324 325 325 325 326 325 324 320 317 313 309 308 306 304 300 297 297 300 294 292 279 263 259 247 248 244 232 215 225 218 215 210 211 216 223
329 330 331 330 330 332 330 325 324 326 326 325 324 326 326 322 320 316 312 308 308 305 307 305 307 303 293 292 281 258 245 259 237 245 222 234 218 223 198 195 200 206 194
328 329 329 329 330 333 332 328 326 327 327 326 325 326 326 323 321 317 315 311 310 309 309 309 309 301 296 289 276 250 236 240 235 223 214 207 195 199 195 203 204 204 209
328 330 330 328 332 335 333 328 326 327 327 326 324 323 325 325 324 320 317 315 313 309 308 308 305 305 301 294 258 236 232 225 195 204 203 205 199 199 195 200 202 195 187
330 332 330 330 336 338 333 328 328 329 326 325 324 324 323 325 324 322 318 318 312 308 313 311 309 308 305 287 257 229 222 215 207 205 196 188 193 183 189 193 192 197 193
331 333 332 333 339 338 335 331 329 329 326 325 324 326 328 324 323 321 320 317 314 316 318 312 306 298 292 284 279 234 218 209 216 200 194 190 189 187 182 179 180 178 177
330 335 335 335 337 339 337 332 331 329 327 326 328 331 329 328 327 325 322 320 319 322 318 311 307 301 292 286 279 263 223 208 201 192 200 177 172 167 162 167 166 164 166
333 336 336 333 337 338 338 335 331 330 328 328 331 333 332 334 331 330 328 325 325 323 315 310 307 302 296 282 249 184 182 184 177 173 168 165 165 162 161 157 156 159 161
335 335 332 335 337 337 337 337 334 331 329 329 331 335 336 337 337 334 335 333 330 320 306 304 303 298 298 267 218 197 181 176 174 166 159 157 157 154 151 153 152 151 146
334 333 333 333 337 336 338 338 336 333 332 329 332 336 335 338 339 331 330 341 336 321 300 290 291 305 290 213 193 186 177 171 172 164 158 155 154 154 154 153 146 145 149